Burlington, VT

8:50 PM EDT on September 21, 2019 (GMT -0400)
Burlington International

Weather History for KBTV - August, 2019

Change the Weather History Date:

Monday, August 19, 2019

  Actual Average Record
Temperature  
Mean Temperature 78 °F 69 °F  
Max Temperature 87 °F 79 °F 93 °F (1899)
Min Temperature 68 °F 58 °F 40 °F (1963)
Degree Days  
Heating Degree Days 0 1  
Month to date heating degree days 0 15  
Since 1 June heating degree days 50 101  
Since 1 July heating degree days 0 28  
Cooling Degree Days 13 4  
Month to date cooling degree days 132 100  
Year to date cooling degree days 540 403  
Since 1 June cooling degree days 535 384  
Growing Degree Days 28 (Base 50)    
Moisture  
Dew Point 64 °F    
Average Humidity 62    
Maximum Humidity 84    
Minimum Humidity 40    
Precipitation  
Precipitation 0.07 in 0.12 in 1.38 in (1965)
Month to date precipitation 1.71 2.55  
Year to date precipitation 25.23 22.71  
Snow  
Snow 0.00 in 0.00 in 0.00 in (2002)
Month to date snowfall 0.0 0.0  
Since 1 June snowfall 0.0 0.0  
Since 1 July snowfall 0.0 0.0  
Snow Depth 0.00 in    
Sea Level Pressure  
Sea Level Pressure 29.90 in    
Wind  
Wind Speed 9 mph (SSW)    
Max Wind Speed 20 mph    
Max Gust Speed 26 mph    
Visibility 10 miles    
Events Rain    
T = Trace of Precipitation, MM = Missing Value Source: NWS Daily Summary

Daily Weather History Graph

Daily Weather History Graph

Search for Another Location

Airport or City:

Astronomy

Aug. 19, 2019 Rise Set
Actual Time 5:59 AM EDT 7:51 PM EDT
Civil Twilight 5:28 AM EDT 8:22 PM EDT
Nautical Twilight 4:50 AM EDT 9:00 PM EDT
Astronomical Twilight 4:08 AM EDT 9:42 PM EDT
Moon 10:03 PM EDT (8/19) 9:46 AM EDT (8/19)
Length of Visible Light 14h 54m
Length of Day
13h 52m
Waning Gibbous, 85% of the Moon is Illuminated
Aug 19
Waning Gibbous
Aug 23
Last Quarter
Aug 30
New
Sep 5
First Quarter
Sep 14
Full

Hourly Weather History & Observations

Time (EDT) Temp. Heat Index Dew Point Humidity Pressure Visibility Wind Dir Wind Speed Gust Speed Precip Events Conditions
12:54 AM 73.9 °F - 66.9 °F 79% 29.86 in 10.0 mi South 9.2 mph 17.3 mph N/A   Clear
1:54 AM 73.0 °F - 66.9 °F 81% 29.88 in 10.0 mi South 10.4 mph - N/A   Clear
2:54 AM 72.0 °F - 66.0 °F 81% 29.88 in 10.0 mi South 9.2 mph - N/A   Clear
3:54 AM 72.0 °F - 66.0 °F 81% 29.88 in 10.0 mi South 6.9 mph - N/A   Clear
4:54 AM 71.1 °F - 66.0 °F 84% 29.89 in 10.0 mi South 8.1 mph - N/A   Clear
5:54 AM 71.1 °F - 64.9 °F 81% 29.89 in 10.0 mi South 6.9 mph - N/A   Partly Cloudy
6:54 AM 71.1 °F - 64.9 °F 81% 29.90 in 10.0 mi South 10.4 mph - N/A   Mostly Cloudy
7:54 AM 71.1 °F - 64.9 °F 81% 29.92 in 10.0 mi South 17.3 mph 26.5 mph 0.00 in Rain Light Rain
8:54 AM 71.1 °F - 64.9 °F 81% 29.89 in 10.0 mi South 13.8 mph 20.7 mph 0.07 in Rain Light Rain
9:54 AM 75.9 °F - 66.0 °F 71% 29.90 in 10.0 mi SSW 13.8 mph 23.0 mph 0.00 in   Mostly Cloudy
10:54 AM 78.1 °F - 66.0 °F 66% 29.90 in 10.0 mi South 12.7 mph - N/A   Mostly Cloudy
11:54 AM 77.0 °F - 66.9 °F 71% 29.90 in 10.0 mi South 9.2 mph - N/A   Overcast
12:54 PM 79.0 °F - 66.9 °F 66% 29.91 in 10.0 mi South 16.1 mph - N/A   Mostly Cloudy
1:54 PM 82.9 °F 85.8 °F 68.0 °F 60% 29.90 in 10.0 mi South 13.8 mph - N/A   Scattered Clouds
2:54 PM 82.9 °F 85.4 °F 66.9 °F 58% 29.89 in 10.0 mi SW 10.4 mph - N/A   Mostly Cloudy
3:54 PM 86.0 °F 87.6 °F 64.9 °F 49% 29.86 in 10.0 mi WSW 9.2 mph - N/A   Scattered Clouds
4:54 PM 87.1 °F 88.3 °F 64.0 °F 46% 29.86 in 10.0 mi Variable 6.9 mph - N/A   Mostly Cloudy
5:54 PM 84.9 °F 85.0 °F 61.0 °F 44% 29.86 in 10.0 mi West 10.4 mph - N/A   Mostly Cloudy
6:54 PM 84.0 °F 83.5 °F 57.9 °F 41% 29.88 in 10.0 mi West 8.1 mph 18.4 mph N/A   Scattered Clouds
7:54 PM 80.1 °F 80.7 °F 59.0 °F 48% 29.91 in 10.0 mi WSW 9.2 mph - N/A   Partly Cloudy
8:54 PM 77.0 °F - 60.1 °F 56% 29.96 in 10.0 mi WSW 4.6 mph - N/A   Clear
9:54 PM 77.0 °F - 59.0 °F 54% 29.96 in 10.0 mi WSW 5.8 mph - N/A   Clear
10:54 PM 73.9 °F - 59.0 °F 59% 29.97 in 10.0 mi SE 3.5 mph - N/A   Clear
11:54 PM 72.0 °F - 59.0 °F 64% 29.99 in 10.0 mi SW 4.6 mph - N/A   Clear